Anoka County, MN

10:18 AM CDT on June 28, 2017 (GMT -0500)
Anoka County / Blaine Airport

Weather History for KANE - April, 2014

Change the Weather History Date:

Friday, April 11, 2014

  Actual Average Record
Temperature  
Mean Temperature 52 °F -  
Max Temperature 62 °F 51 °F 71 °F (2006)
Min Temperature 42 °F 32 °F 19 °F (1997)
Degree Days  
Heating Degree Days 13    
Growing Degree Days 2 (Base 50)    
Moisture  
Dew Point 32 °F    
Average Humidity 54    
Maximum Humidity 76    
Minimum Humidity 27    
Precipitation  
Precipitation 0.00 in - - ()
Sea Level Pressure  
Sea Level Pressure 29.93 in    
Wind  
Wind Speed 3 mph (East)    
Max Wind Speed 10 mph    
Max Gust Speed -    
Visibility 10 miles    
Events      
Averages and records for this station are not official NWS values.
T = Trace of Precipitation, MM = Missing Value Source: NWS Daily Summary

Daily Weather History Graph

Daily Weather History Graph

Search for Another Location

Airport or City:

Trip Planner

Search our weather history database for the weather conditions in past years. The results will help you decide how hot, cold, wet, or windy it might be!

Date:

Astronomy

Apr. 11, 2014 Rise Set
Actual Time 6:34 AM CDT 7:53 PM CDT
Civil Twilight 6:04 AM CDT 8:24 PM CDT
Nautical Twilight 5:28 AM CDT 9:00 PM CDT
Astronomical Twilight 4:49 AM CDT 9:39 PM CDT
Moon 4:26 PM CDT (4/11) 4:40 AM CDT (4/11)
Length of Visible Light 14h 19m
Length of Day
13h 18m
Waxing Gibbous, 87% of the Moon is Illuminated
Apr 11
Waxing Gibbous
Apr 15
Full
Apr 22
Last Quarter
Apr 29
New
May 6
First Quarter

Hourly Weather History & Observations

Time (CDT) Temp. Windchill Dew Point Humidity Pressure Visibility Wind Dir Wind Speed Gust Speed Precip Events Conditions
12:15 AM 42.8 °F 40.1 °F 28.4 °F 57% 29.92 in 10.0 mi SSW 4.6 mph - N/A   Clear
12:36 AM 46.4 °F 44.3 °F 28.4 °F 50% 29.92 in 10.0 mi SSW 4.6 mph - N/A   Mostly Cloudy
12:55 AM 44.6 °F - 28.4 °F 53% 29.92 in 10.0 mi Calm Calm - N/A   Overcast
1:15 AM 44.6 °F - 30.2 °F 57% 29.93 in 10.0 mi Calm Calm - N/A   Overcast
1:35 AM 44.6 °F - 30.2 °F 57% 29.93 in 10.0 mi Calm Calm - N/A   Overcast
1:55 AM 48.2 °F - 30.2 °F 50% 29.93 in 10.0 mi SSW 5.8 mph - N/A   Mostly Cloudy
2:16 AM 46.4 °F - 30.2 °F 53% 29.93 in 10.0 mi Calm Calm - N/A   Overcast
2:35 AM 46.4 °F - 28.4 °F 50% 29.92 in 10.0 mi Calm Calm - N/A   Mostly Cloudy
2:55 AM 44.6 °F - 32.0 °F 61% 29.92 in 10.0 mi Calm Calm - N/A   Overcast
3:16 AM 44.6 °F - 32.0 °F 61% 29.93 in 10.0 mi Calm Calm - N/A   Overcast
3:35 AM 44.6 °F - 32.0 °F 61% 29.93 in 10.0 mi Calm Calm - N/A   Overcast
3:56 AM 44.6 °F - 33.8 °F 66% 29.93 in 10.0 mi Calm Calm - N/A   Overcast
4:15 AM 44.6 °F - 32.0 °F 61% 29.93 in 10.0 mi Calm Calm - N/A   Overcast
4:35 AM 42.8 °F - 33.8 °F 70% 29.94 in 10.0 mi Calm Calm - N/A   Overcast
4:55 AM 42.8 °F - 35.6 °F 76% 29.94 in 10.0 mi Calm Calm - N/A   Overcast
5:15 AM 46.4 °F 44.3 °F 30.2 °F 53% 29.95 in 10.0 mi WSW 4.6 mph - N/A   Overcast
5:36 AM 44.6 °F 42.2 °F 32.0 °F 61% 29.95 in 10.0 mi NNW 4.6 mph - N/A   Overcast
5:55 AM 44.6 °F 43.1 °F 32.0 °F 61% 29.95 in 10.0 mi WNW 3.5 mph - N/A   Mostly Cloudy
6:15 AM 44.6 °F - 30.2 °F 57% 29.94 in 10.0 mi Calm Calm - N/A   Overcast
6:35 AM 42.8 °F - 33.8 °F 70% 29.96 in 10.0 mi Calm Calm - N/A   Overcast
6:55 AM 44.6 °F 43.1 °F 32.0 °F 61% 29.95 in 10.0 mi NE 3.5 mph - N/A   Overcast
7:45 AM 46.4 °F 42.9 °F 33.8 °F 62% 29.94 in 10.0 mi East 6.9 mph - N/A   Mostly Cloudy
8:50 AM 46.4 °F 42.9 °F 37.4 °F 71% 29.97 in 10.0 mi NE 6.9 mph - N/A   Mostly Cloudy
9:50 AM 50.0 °F - 37.4 °F 62% 29.96 in 10.0 mi NE 8.1 mph - N/A   Scattered Clouds
10:55 AM 51.8 °F - 35.6 °F 54% 29.95 in 10.0 mi East 9.2 mph - N/A   Clear
11:50 AM 55.4 °F - 35.6 °F 47% 29.95 in 10.0 mi East 4.6 mph - N/A   Clear
5:45 PM 62.6 °F - 28.4 °F 27% 29.91 in 10.0 mi WNW 10.4 mph - N/A   Scattered Clouds
7:45 PM 59.0 °F - 30.2 °F 34% 29.91 in 10.0 mi West 3.5 mph - N/A   Overcast
9:16 PM 53.6 °F - 33.8 °F 47% 29.94 in 10.0 mi Calm Calm - N/A   Clear
9:35 PM 51.8 °F - 33.8 °F 50% 29.94 in 10.0 mi ENE 6.9 mph - N/A   Clear
9:55 PM 53.6 °F - 32.0 °F 44% 29.94 in 10.0 mi East 5.8 mph - N/A   Clear
10:16 PM 53.6 °F - 33.8 °F 47% 29.93 in 10.0 mi East 6.9 mph - N/A   Clear
10:35 PM 55.4 °F - 30.2 °F 38% 29.93 in 10.0 mi East 6.9 mph - N/A   Clear
10:55 PM 55.4 °F - 28.4 °F 36% 29.92 in 10.0 mi East 6.9 mph - N/A   Scattered Clouds
11:15 PM 55.4 °F - 30.2 °F 38% 29.92 in 10.0 mi ESE 6.9 mph - N/A   Mostly Cloudy
11:35 PM 53.6 °F - 30.2 °F 41% 29.92 in 10.0 mi ESE 4.6 mph - N/A   Mostly Cloudy
11:55 PM 53.6 °F - 30.2 °F 41% 29.92 in 10.0 mi SE 5.8 mph - N/A   Overcast